Air Force Academy, CO

6:52 PM MDT on September 22, 2017 (GMT -0600)
Usaf Academy

Weather History for KAFF - September, 2013

Change the Weather History Date:

Wednesday, September 25, 2013

  Actual Average Record
Temperature  
Mean Temperature 58 °F -  
Max Temperature 78 °F 66 °F 84 °F (1998)
Min Temperature 39 °F 40 °F 26 °F (2000)
Degree Days  
Heating Degree Days 6    
Growing Degree Days 8 (Base 50)    
Moisture  
Dew Point 28 °F    
Average Humidity 32    
Maximum Humidity 81    
Minimum Humidity 11    
Precipitation  
Precipitation 0.00 in - - ()
Sea Level Pressure  
Sea Level Pressure 29.64 in    
Wind  
Wind Speed 11 mph (SSE)    
Max Wind Speed 25 mph    
Max Gust Speed 39 mph    
Visibility 10 miles    
Events      
Averages and records for this station are not official NWS values.
T = Trace of Precipitation, MM = Missing Value Source: NWS Daily Summary

Daily Weather History Graph

Daily Weather History Graph

Search for Another Location

Airport or City:

Trip Planner

Search our weather history database for the weather conditions in past years. The results will help you decide how hot, cold, wet, or windy it might be!

Date:

Astronomy

Sep. 25, 2013 Rise Set
Actual Time 6:49 AM MDT 6:50 PM MDT
Civil Twilight 6:23 AM MDT 7:17 PM MDT
Nautical Twilight 5:52 AM MDT 7:48 PM MDT
Astronomical Twilight 5:20 AM MDT 8:19 PM MDT
Moon 11:02 PM MDT (9/25) 12:54 PM MDT (9/25)
Length of Visible Light 12h 54m
Length of Day
12h 01m
Waning Gibbous, 63% of the Moon is Illuminated
Sep 25
Waning Gibbous
Sep 26
Last Quarter
Oct 4
New
Oct 11
First Quarter
Oct 18
Full

Hourly Weather History & Observations

Time (MDT) Temp. Windchill Dew Point Humidity Pressure Visibility Wind Dir Wind Speed Gust Speed Precip Events Conditions
12:58 AM 41.2 °F 36.6 °F 35.2 °F 79% 29.84 in 10.0 mi North 6.9 mph - N/A   Clear
1:58 AM 41.0 °F 36.4 °F 34.9 °F 79% 29.80 in 10.0 mi North 6.9 mph - N/A   Clear
2:58 AM 39.9 °F 35.1 °F 34.5 °F 81% 29.78 in 10.0 mi North 6.9 mph - N/A   Clear
3:58 AM 42.1 °F 37.7 °F 34.7 °F 75% 29.76 in 10.0 mi NW 6.9 mph - N/A   Clear
4:58 AM 42.6 °F - 34.2 °F 72% 29.75 in 10.0 mi Calm Calm - N/A   Clear
5:58 AM 45.7 °F 44.4 °F 32.7 °F 61% 29.73 in 10.0 mi Variable 3.5 mph - N/A   Clear
6:58 AM 42.4 °F 39.6 °F 33.1 °F 69% 29.76 in 10.0 mi Variable 4.6 mph - N/A   Clear
7:58 AM 48.4 °F - 33.1 °F 56% 29.72 in 10.0 mi SSE 3.5 mph - N/A   Clear
8:58 AM 59.5 °F - 32.0 °F 35% 29.69 in 10.0 mi NE 2.3 mph - N/A   Clear
9:58 AM 66.0 °F - 31.8 °F 28% 29.65 in 10.0 mi SE 6.9 mph - N/A   Clear
10:58 AM 69.6 °F - 32.7 °F 26% 29.63 in 10.0 mi SSE 15.0 mph - N/A   Clear
11:58 AM 72.9 °F - 28.8 °F 20% 29.62 in 10.0 mi SE 16.1 mph 23.0 mph N/A   Clear
11:59 AM 73.4 °F - 28.4 °F 19% 29.82 in 10.0 mi ESE 18.4 mph 23.0 mph N/A   Clear
12:13 PM 73.4 °F - 28.4 °F 19% 29.81 in 10.0 mi SSE 13.8 mph 26.5 mph N/A   Clear
12:21 PM 73.4 °F - 28.4 °F 19% 29.81 in 10.0 mi ESE 15.0 mph 21.9 mph N/A   Clear
12:31 PM 73.4 °F - 30.2 °F 20% 29.79 in 10.0 mi ESE 18.4 mph 27.6 mph N/A   Clear
12:32 PM 73.4 °F - 30.2 °F 20% 29.78 in 10.0 mi SSE 17.3 mph 27.6 mph N/A   Clear
12:52 PM 77.0 °F - 24.8 °F 14% 29.78 in 10.0 mi SW 12.7 mph 18.4 mph N/A   Clear
12:58 PM 76.6 °F - 24.8 °F 15% 29.57 in 10.0 mi South 17.3 mph 23.0 mph N/A   Clear
1:49 PM 77.0 °F - 23.0 °F 13% 29.74 in 10.0 mi SW 21.9 mph 24.2 mph N/A   Clear
1:58 PM 78.3 °F - 21.2 °F 12% 29.51 in 10.0 mi SSW 18.4 mph 27.6 mph N/A   Clear
2:58 PM 78.1 °F - 19.4 °F 11% 29.50 in 10.0 mi SSW 23.0 mph 32.2 mph N/A   Clear
3:03 PM 78.8 °F - 19.4 °F 11% 29.70 in 10.0 mi South 25.3 mph 32.2 mph N/A   Clear
3:58 PM 77.7 °F - 22.8 °F 13% 29.47 in 10.0 mi South 25.3 mph 39.1 mph N/A   Clear
4:58 PM 77.0 °F - 22.6 °F 13% 29.44 in 10.0 mi South 23.0 mph 34.5 mph N/A   Clear
5:58 PM 75.4 °F - 22.1 °F 14% 29.43 in 10.0 mi South 23.0 mph 31.1 mph N/A   Clear
6:58 PM 71.8 °F - 24.6 °F 17% 29.47 in 10.0 mi South 17.3 mph - N/A   Clear
7:58 PM 70.2 °F - 24.3 °F 18% 29.47 in 10.0 mi South 15.0 mph 29.9 mph N/A   Clear
8:58 PM 69.6 °F - 25.7 °F 19% 29.44 in 10.0 mi SSW 17.3 mph 28.8 mph N/A   Clear
9:58 PM 68.4 °F - 26.4 °F 21% 29.42 in 10.0 mi South 13.8 mph - N/A   Clear
10:58 PM 68.2 °F - 25.3 °F 20% 29.41 in 10.0 mi South 15.0 mph 19.6 mph N/A   Clear
11:58 PM 67.5 °F - 24.6 °F 20% 29.39 in 10.0 mi South 19.6 mph 23.0 mph N/A   Clear